• In Uzbekistan
  • List of Countries
  • For 7 days
  • Water Temperature
  • Satellite Maps
  • Weather Map
  • Weather Widgets
  • user-avatar
    Login

    Hourly Weather Dromore

    Today, 15 December, Friday

    Time Temperature Precipitation Wind Pressure Humidity
    00:00 +3°C° 0 mm 10 mps 733 mmHg 76%
    01:00 +2°C° 0 mm 9 mps 735 mmHg 77%
    02:00 +2°C° 0 mm 8 mps 736 mmHg 79%
    03:00 +3°C° 0 mm 7 mps 737 mmHg 80%
    04:00 +2°C° 0 mm 8 mps 738 mmHg 80%
    05:00 +2°C° 0 mm 8 mps 740 mmHg 79%
    06:00 +2°C° 0 mm 8 mps 741 mmHg 79%
    07:00 +2°C° 0 mm 8 mps 742 mmHg 79%
    08:00 +2°C° 0 mm 8 mps 742 mmHg 78%
    09:00 +1°C° 0 mm 8 mps 743 mmHg 77%
    10:00 +2°C° 0 mm 8 mps 744 mmHg 76%
    11:00 +3°C° 0 mm 7 mps 745 mmHg 74%
    12:00 +4°C° 0 mm 7 mps 746 mmHg 73%
    13:00 +3°C° 0 mm 7 mps 747 mmHg 74%
    14:00 +3°C° 0 mm 6 mps 747 mmHg 75%
    15:00 +3°C° 0 mm 6 mps 748 mmHg 76%
    16:00 +2°C° 0 mm 6 mps 748 mmHg 77%
    17:00 +2°C° 0 mm 6 mps 749 mmHg 78%
    18:00 +1°C° 0 mm 6 mps 749 mmHg 80%
    19:00 +1°C° 0.1 mm 6 mps 750 mmHg 80%
    20:00 +1°C° 0.1 mm 6 mps 750 mmHg 80%
    21:00 +1°C° 0.1 mm 6 mps 751 mmHg 80%
    22:00 +1°C° 0 mm 6 mps 751 mmHg 81%
    23:00 0°C° 0 mm 5 mps 751 mmHg 82%

    Tomorrow, 16 December, Saturday

    Time Temperature Precipitation Wind Pressure Humidity
    00:00 0°C° 0 mm 5 mps 752 mmHg 83%
    01:00 +1°C° 0.2 mm 6 mps 752 mmHg 83%
    02:00 +1°C° 0.2 mm 6 mps 752 mmHg 83%
    03:00 +1°C° 0.2 mm 6 mps 752 mmHg 83%
    04:00 +2°C° 0.2 mm 6 mps 752 mmHg 84%
    05:00 +2°C° 0.2 mm 6 mps 752 mmHg 85%
    06:00 +2°C° 0.2 mm 7 mps 752 mmHg 85%
    07:00 +2°C° 0.1 mm 6 mps 753 mmHg 87%
    08:00 +2°C° 0.1 mm 5 mps 753 mmHg 89%
    09:00 +3°C° 0.1 mm 4 mps 753 mmHg 90%
    10:00 +3°C° 0 mm 4 mps 754 mmHg 88%
    11:00 +4°C° 0 mm 4 mps 754 mmHg 85%
    12:00 +5°C° 0 mm 4 mps 754 mmHg 83%
    13:00 +5°C° 0 mm 4 mps 755 mmHg 83%
    14:00 +4°C° 0 mm 4 mps 755 mmHg 83%
    15:00 +4°C° 0 mm 4 mps 755 mmHg 83%
    16:00 +4°C° 0 mm 4 mps 756 mmHg 85%
    17:00 +4°C° 0 mm 3 mps 756 mmHg 87%
    18:00 +4°C° 0 mm 3 mps 756 mmHg 89%
    19:00 +3°C° 0 mm 3 mps 756 mmHg 91%
    20:00 +3°C° 0 mm 3 mps 756 mmHg 92%
    21:00 +3°C° 0 mm 3 mps 756 mmHg 94%
    22:00 +3°C° 0 mm 3 mps 756 mmHg 94%
    23:00 +4°C° 0 mm 3 mps 756 mmHg 94%

    Day after tomorrow, 17 December, Sunday

    Time Temperature Precipitation Wind Pressure Humidity
    00:00 +4°C° 0 mm 4 mps 756 mmHg 94%
    01:00 +4°C° 0.1 mm 4 mps 756 mmHg 94%
    02:00 +5°C° 0.1 mm 5 mps 755 mmHg 94%
    03:00 +5°C° 0.1 mm 5 mps 755 mmHg 95%
    04:00 +5°C° 0.4 mm 6 mps 755 mmHg 94%
    05:00 +5°C° 0.4 mm 6 mps 754 mmHg 94%
    06:00 +5°C° 0.4 mm 6 mps 753 mmHg 93%
    07:00 +6°C° 0.4 mm 7 mps 753 mmHg 93%
    08:00 +6°C° 0.4 mm 7 mps 753 mmHg 93%
    09:00 +8°C° 0.4 mm 7 mps 753 mmHg 92%
    10:00 +8°C° 0.1 mm 7 mps 753 mmHg 93%
    11:00 +8°C° 0.1 mm 7 mps 753 mmHg 93%
    12:00 +9°C° 0.1 mm 7 mps 753 mmHg 94%
    13:00 +9°C° 0 mm 6 mps 754 mmHg 94%
    14:00 +9°C° 0 mm 6 mps 754 mmHg 94%
    15:00 +9°C° 0 mm 5 mps 754 mmHg 93%
    16:00 +8°C° 0 mm 5 mps 754 mmHg 93%
    17:00 +7°C° 0 mm 4 mps 755 mmHg 93%
    18:00 +7°C° 0 mm 4 mps 756 mmHg 93%
    19:00 +7°C° 0 mm 3 mps 756 mmHg 93%
    20:00 +7°C° 0 mm 3 mps 757 mmHg 93%
    21:00 +6°C° 0 mm 2 mps 758 mmHg 92%
    22:00 +6°C° 0 mm 2 mps 758 mmHg 93%
    23:00 +6°C° 0 mm 2 mps 758 mmHg 93%

    18 December, Monday

    Time Temperature Precipitation Wind Pressure Humidity
    00:00 +5°C° 0 mm 2 mps 759 mmHg 94%
    01:00 +6°C° 0 mm 2 mps 759 mmHg 94%
    02:00 +7°C° 0 mm 1 mps 759 mmHg 94%
    03:00 +7°C° 0 mm 1 mps 759 mmHg 95%
    04:00 +6°C° 0 mm 2 mps 759 mmHg 95%
    05:00 +7°C° 0 mm 2 mps 759 mmHg 96%
    06:00 +7°C° 0 mm 3 mps 759 mmHg 97%
    07:00 +8°C° 0 mm 3 mps 759 mmHg 97%
    08:00 +8°C° 0 mm 3 mps 759 mmHg 97%
    09:00 +8°C° 0 mm 4 mps 759 mmHg 97%
    10:00 +8°C° 0.1 mm 4 mps 760 mmHg 97%
    11:00 +8°C° 0.1 mm 4 mps 760 mmHg 97%
    12:00 +10°C° 0.1 mm 4 mps 760 mmHg 96%
    13:00 +10°C° 0 mm 4 mps 760 mmHg 96%
    14:00 +10°C° 0 mm 4 mps 760 mmHg 96%
    15:00 +11°C° 0 mm 3 mps 760 mmHg 96%
    16:00 +11°C° 0 mm 3 mps 760 mmHg 96%
    17:00 +11°C° 0 mm 3 mps 760 mmHg 97%
    18:00 +11°C° 0 mm 3 mps 760 mmHg 97%
    19:00 +11°C° 0 mm 4 mps 760 mmHg 97%
    20:00 +11°C° 0 mm 4 mps 761 mmHg 96%
    21:00 +12°C° 0 mm 4 mps 761 mmHg 96%
    22:00 +12°C° 0 mm 4 mps 761 mmHg 96%
    23:00 +12°C° 0 mm 4 mps 761 mmHg 96%

    19 December, Tuesday

    Time Temperature Precipitation Wind Pressure Humidity
    00:00 +12°C° 0 mm 4 mps 761 mmHg 96%
    01:00 +12°C° 0 mm 4 mps 761 mmHg 96%
    02:00 +12°C° 0 mm 4 mps 761 mmHg 96%
    03:00 +12°C° 0 mm 4 mps 761 mmHg 96%
    04:00 +12°C° 0 mm 5 mps 761 mmHg 95%
    05:00 +12°C° 0 mm 5 mps 761 mmHg 95%
    06:00 +12°C° 0 mm 5 mps 761 mmHg 95%
    07:00 +10°C° 0 mm 5 mps 761 mmHg 94%
    08:00 +10°C° 0 mm 5 mps 761 mmHg 94%
    09:00 +10°C° 0 mm 5 mps 762 mmHg 94%
    10:00 +12°C° 0 mm 5 mps 762 mmHg 93%
    11:00 +12°C° 0 mm 5 mps 762 mmHg 92%
    12:00 +11°C° 0 mm 6 mps 762 mmHg 91%
    13:00 +11°C° 0 mm 6 mps 762 mmHg 90%
    14:00 +11°C° 0 mm 6 mps 762 mmHg 90%
    15:00 +11°C° 0 mm 6 mps 761 mmHg 89%
    16:00 +11°C° 0 mm 6 mps 762 mmHg 89%
    17:00 +11°C° 0 mm 6 mps 762 mmHg 90%
    18:00 +10°C° 0 mm 6 mps 762 mmHg 90%
    19:00 +10°C° 0 mm 6 mps 762 mmHg 90%
    20:00 +10°C° 0 mm 6 mps 762 mmHg 90%
    21:00 +10°C° 0 mm 6 mps 763 mmHg 91%
    22:00 +10°C° 0.1 mm 5 mps 763 mmHg 92%
    23:00 +10°C° 0.1 mm 5 mps 763 mmHg 93%

    20 December, Wednesday

    Time Temperature Precipitation Wind Pressure Humidity
    00:00 +11°C° 0.1 mm 4 mps 763 mmHg 94%
    01:00 +11°C° 0.1 mm 4 mps 763 mmHg 94%
    02:00 +10°C° 0.1 mm 4 mps 763 mmHg 95%
    03:00 +10°C° 0.1 mm 3 mps 764 mmHg 95%
    04:00 +10°C° 0.1 mm 3 mps 764 mmHg 95%
    05:00 +10°C° 0.1 mm 3 mps 764 mmHg 96%
    06:00 +10°C° 0.1 mm 3 mps 763 mmHg 96%
    07:00 +10°C° 0.2 mm 4 mps 764 mmHg 95%
    08:00 +10°C° 0.2 mm 4 mps 764 mmHg 95%
    09:00 +10°C° 0.2 mm 4 mps 764 mmHg 95%
    10:00 +10°C° 0.3 mm 5 mps 764 mmHg 94%
    11:00 +10°C° 0.3 mm 5 mps 763 mmHg 93%
    12:00 +10°C° 0.3 mm 6 mps 763 mmHg 92%
    13:00 +10°C° 0.3 mm 6 mps 763 mmHg 92%
    14:00 +10°C° 0.3 mm 6 mps 763 mmHg 91%
    15:00 +10°C° 0.3 mm 6 mps 762 mmHg 91%
    16:00 +10°C° 0.3 mm 6 mps 762 mmHg 91%
    17:00 +10°C° 0.3 mm 6 mps 762 mmHg 92%
    18:00 +10°C° 0.3 mm 6 mps 762 mmHg 92%
    19:00 +10°C° 0.2 mm 5 mps 762 mmHg 92%
    20:00 +10°C° 0.2 mm 5 mps 762 mmHg 93%
    21:00 +10°C° 0.2 mm 5 mps 762 mmHg 94%
    22:00 +10°C° 0.8 mm 5 mps 762 mmHg 94%
    23:00 +10°C° 0.8 mm 6 mps 761 mmHg 94%
    Show more